Location: Klagenfurt
(46.6230°N, 14.2987°E)
Time: 01:51:27
(UTC+01:00)

ISS - Visible Passes

Search period start: 08 December 2021 00:00
Search period end: 18 December 2021 00:00
Orbit: 417 x 422 km, 51.6° (Epoch: 07 December)

Date Brightness Start Highest point End Pass type
(mag) Time Alt. Az. Time Alt. Az. Time Alt. Az.
08 Dec -0.7 18:05:41 10° W 18:07:46 15° SW 18:09:50 10° S visible
09 Dec -1.2 17:17:46 10° W 17:20:33 24° SW 17:23:19 10° SSE visible
16 Dec 0.1 06:57:14 10° SSE 06:58:09 11° SE 06:59:05 10° ESE visible
